Jamestown, NY

12:40 PM EDT on June 29, 2017 (GMT -0400)
Chautauqua County-Jamestown

Weather History for KJHW - February, 2014

Change the Weather History Date:

Monday, February 24, 2014

  Actual Average Record
Temperature  
Mean Temperature 18 °F -  
Max Temperature 21 °F 39 °F 69 °F (2017)
Min Temperature 15 °F 20 °F -11 °F (2015)
Degree Days  
Heating Degree Days 47    
Moisture  
Dew Point 9 °F    
Average Humidity 71    
Maximum Humidity 86    
Minimum Humidity 53    
Precipitation  
Precipitation 0.00 in - - ()
Sea Level Pressure  
Sea Level Pressure 29.96 in    
Wind  
Wind Speed 15 mph (West)    
Max Wind Speed 24 mph    
Max Gust Speed 34 mph    
Visibility 5 miles    
Events      
Averages and records for this station are not official NWS values.
T = Trace of Precipitation, MM = Missing Value Source: NWS Daily Summary

Daily Weather History Graph

Daily Weather History Graph

Search for Another Location

Airport or City:

Trip Planner

Search our weather history database for the weather conditions in past years. The results will help you decide how hot, cold, wet, or windy it might be!

Date:

Astronomy

Feb. 24, 2014 Rise Set
Actual Time 7:00 AM EST 6:01 PM EST
Civil Twilight 6:31 AM EST 6:29 PM EST
Nautical Twilight 5:59 AM EST 7:01 PM EST
Astronomical Twilight 5:27 AM EST 7:34 PM EST
Moon 3:00 AM EST (2/24) 12:56 PM EST (2/24)
Length of Visible Light 11h 57m
Length of Day
11h 00m
Waning Crescent, 28% of the Moon is Illuminated
Feb 24
Waning Crescent
Mar 1
New
Mar 8
First Quarter
Mar 16
Full
Mar 23
Last Quarter

Hourly Weather History & Observations

Time (EST) Temp. Windchill Dew Point Humidity Pressure Visibility Wind Dir Wind Speed Gust Speed Precip Events Conditions
12:15 AM 21.2 °F 6.8 °F 6.8 °F 54% 29.91 in 10.0 mi West 17.3 mph 21.9 mph N/A   Partly Cloudy
12:35 AM 19.4 °F 5.0 °F 6.8 °F 58% 29.92 in 10.0 mi West 16.1 mph 21.9 mph N/A   Scattered Clouds
12:55 AM 19.4 °F 3.2 °F 10.4 °F 68% 29.92 in 10.0 mi West 20.7 mph 31.1 mph N/A   Mostly Cloudy
1:15 AM 19.4 °F 5.0 °F 6.8 °F 58% 29.92 in 10.0 mi WNW 16.1 mph 24.2 mph N/A   Mostly Cloudy
1:35 AM 17.6 °F 3.7 °F 8.6 °F 68% 29.93 in 10.0 mi WNW 13.8 mph 23.0 mph N/A   Mostly Cloudy
1:55 AM 17.6 °F 2.7 °F 6.8 °F 63% 29.93 in 10.0 mi WNW 16.1 mph 19.6 mph N/A   Mostly Cloudy
2:15 AM 17.6 °F 2.7 °F 6.8 °F 63% 29.93 in 10.0 mi WNW 16.1 mph - N/A   Overcast
2:35 AM 17.6 °F 5.0 °F 6.8 °F 63% 29.92 in 10.0 mi West 11.5 mph - N/A   Overcast
2:55 AM 17.6 °F 5.0 °F 6.8 °F 63% 29.91 in 10.0 mi West 11.5 mph - N/A   Overcast
3:15 AM 17.6 °F 5.0 °F 8.6 °F 68% 29.91 in 10.0 mi West 11.5 mph 16.1 mph N/A   Overcast
3:35 AM 17.6 °F 5.7 °F 8.6 °F 68% 29.91 in 10.0 mi West 10.4 mph - N/A   Overcast
3:55 AM 17.6 °F 5.0 °F 6.8 °F 63% 29.91 in 10.0 mi West 11.5 mph 18.4 mph N/A   Overcast
4:15 AM 17.6 °F 5.0 °F 6.8 °F 63% 29.91 in 10.0 mi West 11.5 mph - N/A   Overcast
4:35 AM 17.6 °F 4.3 °F 6.8 °F 63% 29.90 in 10.0 mi West 12.7 mph - N/A   Overcast
4:55 AM 17.6 °F 3.7 °F 8.6 °F 68% 29.90 in 10.0 mi West 13.8 mph 19.6 mph N/A   Overcast
5:15 AM 17.6 °F 5.7 °F 8.6 °F 68% 29.90 in 8.0 mi West 10.4 mph - N/A   Mostly Cloudy
5:35 AM 17.6 °F 5.0 °F 8.6 °F 68% 29.90 in 9.0 mi West 11.5 mph - N/A   Overcast
5:55 AM 17.6 °F 6.4 °F 8.6 °F 68% 29.90 in 10.0 mi West 9.2 mph - N/A   Overcast
6:15 AM 17.6 °F 5.0 °F 8.6 °F 68% 29.89 in 10.0 mi West 11.5 mph 19.6 mph N/A   Overcast
6:35 AM 17.6 °F 3.7 °F 8.6 °F 68% 29.90 in 10.0 mi West 13.8 mph 20.7 mph N/A   Overcast
6:55 AM 17.6 °F 3.7 °F 6.8 °F 63% 29.90 in 10.0 mi West 13.8 mph 23.0 mph N/A   Overcast
7:15 AM 17.6 °F 3.2 °F 8.6 °F 68% 29.90 in 10.0 mi West 15.0 mph 23.0 mph N/A   Overcast
7:35 AM 17.6 °F 0.9 °F 8.6 °F 68% 29.90 in 5.0 mi West 20.7 mph 28.8 mph N/A   Overcast
7:55 AM 17.6 °F 1.7 °F 6.8 °F 63% 29.91 in 10.0 mi West 18.4 mph 26.5 mph N/A   Overcast
8:15 AM 17.6 °F 1.7 °F 8.6 °F 68% 29.92 in 5.0 mi West 18.4 mph 25.3 mph N/A   Overcast
8:35 AM 17.6 °F 2.2 °F 8.6 °F 68% 29.92 in 3.0 mi West 17.3 mph 21.9 mph N/A   Overcast
8:55 AM 17.6 °F 3.2 °F 10.4 °F 73% 29.93 in 3.0 mi West 15.0 mph 24.2 mph N/A   Overcast
9:15 AM 17.6 °F 3.2 °F 10.4 °F 73% 29.93 in 3.0 mi West 15.0 mph 19.6 mph N/A   Overcast
9:35 AM 17.6 °F 3.7 °F 10.4 °F 73% 29.93 in 2.5 mi West 13.8 mph 23.0 mph N/A   Overcast
9:55 AM 17.6 °F 2.7 °F 12.2 °F 79% 29.93 in 2.0 mi West 16.1 mph 25.3 mph N/A   Overcast
10:15 AM 17.6 °F 2.7 °F 10.4 °F 73% 29.93 in 0.8 mi West 16.1 mph 21.9 mph N/A   Overcast
10:35 AM 15.8 °F -1.1 °F 10.4 °F 79% 29.95 in 0.8 mi WNW 19.6 mph 25.3 mph N/A   Overcast
10:55 AM 15.8 °F 1.4 °F 10.4 °F 79% 29.95 in 1.0 mi West 13.8 mph 20.7 mph N/A   Overcast
11:15 AM 15.8 °F 1.4 °F 10.4 °F 79% 29.95 in 0.8 mi West 13.8 mph 25.3 mph N/A   Overcast
11:35 AM 15.8 °F 0.9 °F 8.6 °F 73% 29.96 in 1.0 mi West 15.0 mph 24.2 mph N/A   Overcast
11:55 AM 15.8 °F -1.5 °F 8.6 °F 73% 29.96 in 1.5 mi WNW 20.7 mph 24.2 mph N/A   Overcast
12:15 PM 15.8 °F -2.7 °F 5.0 °F 62% 29.97 in 1.0 mi West 24.2 mph 33.4 mph N/A   Overcast
12:35 PM 17.6 °F 1.3 °F 5.0 °F 58% 29.96 in 2.0 mi West 19.6 mph 33.4 mph N/A   Overcast
12:55 PM 17.6 °F 0.1 °F 3.2 °F 53% 29.96 in 1.5 mi West 23.0 mph 34.5 mph N/A   Overcast
1:15 PM 17.6 °F 0.9 °F 5.0 °F 58% 29.96 in 1.5 mi West 20.7 mph 29.9 mph N/A   Overcast
1:35 PM 17.6 °F 1.3 °F 6.8 °F 63% 29.96 in 4.0 mi WNW 19.6 mph 25.3 mph N/A   Overcast
1:55 PM 17.6 °F 5.0 °F 6.8 °F 63% 29.97 in 2.0 mi West 11.5 mph 21.9 mph N/A   Overcast
2:15 PM 15.8 °F -0.2 °F 8.6 °F 73% 29.96 in 1.8 mi West 17.3 mph 23.0 mph N/A   Overcast
2:35 PM 15.8 °F 0.9 °F 10.4 °F 79% 29.97 in 0.8 mi West 15.0 mph 24.2 mph N/A   Overcast
2:55 PM 15.8 °F 1.4 °F 10.4 °F 79% 29.97 in 1.2 mi West 13.8 mph 26.5 mph N/A   Overcast
3:15 PM 17.6 °F 3.2 °F 8.6 °F 68% 29.97 in 2.5 mi West 15.0 mph 24.2 mph N/A   Overcast
3:35 PM 17.6 °F 2.2 °F 10.4 °F 73% 29.98 in 2.5 mi West 17.3 mph 21.9 mph N/A   Overcast
3:55 PM 17.6 °F 5.7 °F 10.4 °F 73% 29.98 in 1.8 mi WNW 10.4 mph 16.1 mph N/A   Overcast
4:15 PM 17.6 °F 4.3 °F 10.4 °F 73% 29.99 in 1.5 mi WNW 12.7 mph 17.3 mph N/A   Overcast
4:35 PM 17.6 °F 5.0 °F 10.4 °F 73% 29.99 in 1.0 mi West 11.5 mph 16.1 mph N/A   Overcast
4:55 PM 17.6 °F 4.3 °F 10.4 °F 73% 29.99 in 1.8 mi West 12.7 mph 17.3 mph N/A   Overcast
5:15 PM 17.6 °F 4.3 °F 10.4 °F 73% 30.00 in 2.0 mi West 12.7 mph 23.0 mph N/A   Overcast
5:35 PM 17.6 °F 4.3 °F 10.4 °F 73% 30.00 in 1.5 mi West 12.7 mph - N/A   Overcast
5:55 PM 17.6 °F 4.3 °F 10.4 °F 73% 30.01 in 2.0 mi West 12.7 mph 18.4 mph N/A   Overcast
6:15 PM 17.6 °F 5.0 °F 12.2 °F 79% 30.01 in 2.0 mi West 11.5 mph - N/A   Overcast
6:35 PM 17.6 °F 4.3 °F 12.2 °F 79% 30.02 in 3.0 mi West 12.7 mph - N/A   Overcast
6:55 PM 17.6 °F 3.7 °F 10.4 °F 73% 30.02 in 4.0 mi West 13.8 mph 19.6 mph N/A   Overcast
7:15 PM 17.6 °F 5.0 °F 10.4 °F 73% 30.02 in 5.0 mi West 11.5 mph 16.1 mph N/A   Overcast
7:35 PM 17.6 °F 5.0 °F 10.4 °F 73% 30.02 in 3.0 mi West 11.5 mph - N/A   Overcast
7:55 PM 17.6 °F 8.2 °F 12.2 °F 79% 30.02 in 4.0 mi WSW 6.9 mph - N/A   Overcast
8:15 PM 17.6 °F 5.0 °F 10.4 °F 73% 30.02 in 5.0 mi WSW 11.5 mph - N/A   Overcast
8:35 PM 17.6 °F 5.0 °F 10.4 °F 73% 30.02 in 4.0 mi WSW 11.5 mph - N/A   Overcast
8:55 PM 17.6 °F 6.4 °F 10.4 °F 73% 30.01 in 5.0 mi WSW 9.2 mph - N/A   Overcast
9:15 PM 17.6 °F 5.7 °F 12.2 °F 79% 30.02 in 3.0 mi WSW 10.4 mph - N/A   Overcast
9:35 PM 17.6 °F 6.4 °F 12.2 °F 79% 30.01 in 3.0 mi WSW 9.2 mph - N/A   Overcast
9:55 PM 17.6 °F 7.3 °F 12.2 °F 79% 30.01 in 3.0 mi WSW 8.1 mph - N/A   Overcast
10:15 PM 17.6 °F 6.4 °F 12.2 °F 79% 30.01 in 3.0 mi WSW 9.2 mph - N/A   Overcast
10:35 PM 17.6 °F 7.3 °F 12.2 °F 79% 30.00 in 2.5 mi WSW 8.1 mph - N/A   Overcast
10:55 PM 17.6 °F 6.4 °F 14.0 °F 86% 30.00 in 1.8 mi West 9.2 mph - N/A   Overcast
11:15 PM 17.6 °F 8.2 °F 14.0 °F 86% 30.00 in 3.0 mi West 6.9 mph - N/A   Overcast
11:35 PM 17.6 °F 5.7 °F 12.2 °F 79% 29.99 in 5.0 mi West 10.4 mph - N/A   Overcast
11:55 PM 17.6 °F 5.7 °F 12.2 °F 79% 29.99 in 5.0 mi West 10.4 mph - N/A   Overcast